GW0637 Weather Reports


time (UTC)temp
C
wind
direction
speed
KPH
gust
KPH
rain 1hr
cm
rain 24hr
cm
rain mn
cm
humidity
%
barometer
mb
20260905004758 19 304 14.5 27.4 0.00 0.00 0.00 39 1012.5
20260905004247 19 321 11.3 20.9 0.00 0.00 0.00 39 1012.5
20260905003742 20 327 14.5 24.1 0.00 0.00 0.00 39 1012.6
20260905003238 20 341 16.1 25.7 0.00 0.00 0.00 39 1012.8
20260905002734 20 314 14.5 27.4 0.00 0.00 0.00 39 1012.5
20260905002234 20 335 20.9 27.4 0.00 0.00 0.00 38 1012.9
20260905001729 20 337 19.3 29.0 0.00 0.00 0.00 37 1012.9
20260905001228 21 323 17.7 22.5 0.00 0.00 0.00 36 1013.0
20260905000724 21 309 11.3 25.7 0.00 0.00 0.00 36 1012.6
20260905000219 21 291 17.7 24.1 0.00 0.00 0.00 36 1012.6
20260904235715 21 320 14.5 29.0 0.00 0.00 0.00 36 1012.5
20260904235209 21 326 20.9 27.4 0.00 0.00 0.00 35 1012.5
20260904234703 21 313 20.9 32.2 0.00 0.00 0.00 34 1012.3
20260904234159 21 335 24.1 32.2 0.00 0.00 0.00 35 1012.5
20260904233655 21 258 27.4 35.4 0.00 0.00 0.00 34 1012.5
20260904233150 21 320 22.5 27.4 0.00 0.00 0.00 34 1012.3
20260904232647 21 305 24.1 37.0 0.00 0.00 0.00 34 1012.3
20260904232143 21 294 12.9 33.8 0.00 0.00 0.00 35 1012.3
20260904231638 21 6 24.1 29.0 0.00 0.00 0.00 34 1012.3
20260904231133 21 305 19.3 27.4 0.00 0.00 0.00 34 1012.3
20260904230632 21 311 17.7 33.8 0.00 0.00 0.00 35 1011.9
20260904230128 21 351 24.1 32.2 0.00 0.00 0.00 35 1012.2
20260904225625 21 308 25.7 37.0 0.00 0.00 0.00 34 1012.1
20260904225120 21 343 24.1 37.0 0.00 0.00 0.00 35 1012.0
20260904224615 21 315 24.1 29.0 0.00 0.00 0.00 35 1011.8
20260904224110 22 307 29.0 35.4 0.00 0.00 0.00 34 1011.7
20260904223609 21 324 12.9 27.4 0.00 0.00 0.00 34 1011.7
20260904223104 21 290 20.9 35.4 0.00 0.00 0.00 34 1011.7
20260904222600 21 302 16.1 33.8 0.00 0.00 0.00 34 1011.7
20260904222050 22 338 17.7 32.2 0.00 0.00 0.00 34 1011.9
20260904221550 21 321 20.9 32.2 0.00 0.00 0.00 34 1011.5
20260904221044 21 280 19.3 37.0 0.00 0.00 0.00 34 1011.5
20260904220543 21 300 19.3 32.2 0.00 0.00 0.00 34 1011.3
20260904220039 22 315 25.7 33.8 0.00 0.00 0.00 33 1011.1
20260904215534 22 295 16.1 25.7 0.00 0.00 0.00 34 1011.2
20260904215030 22 288 24.1 37.0 0.00 0.00 0.00 34 1011.0
20260904214525 21 349 24.1 33.8 0.00 0.00 0.00 34 1011.2
20260904214021 22 333 19.3 27.4 0.00 0.00 0.00 35 1011.1
20260904213518 21 313 22.5 29.0 0.00 0.00 0.00 36 1011.2
20260904213015 20 283 12.9 24.1 0.00 0.00 0.00 37 1010.9
20260904212514 19 340 19.3 29.0 0.00 0.00 0.00 39 1011.0
20260904212009 19 3 17.7 32.2 0.00 0.00 0.00 40 1011.0
20260904211504 18 318 17.7 29.0 0.00 0.00 0.00 41 1010.8
20260904210959 18 319 19.3 32.2 0.00 0.00 0.00 41 1010.8
20260904210458 18 298 19.3 37.0 0.00 0.00 0.00 41 1010.9
20260904205954 18 288 16.1 25.7 0.00 0.00 0.00 41 1010.8
20260904205450 18 323 24.1 33.8 0.00 0.00 0.00 41 1011.1
20260904204947 18 295 17.7 33.8 0.00 0.00 0.00 41 1010.8
20260904204443 19 294 20.9 33.8 0.00 0.00 0.00 40 1010.4
20260904203939 18 331 27.4 37.0 0.00 0.00 0.00 41 1010.7
20260904203435 19 333 22.5 37.0 0.00 0.00 0.00 41 1010.7
20260904202930 19 297 29.0 38.6 0.00 0.00 0.00 41 1010.7
20260904202426 19 311 25.7 35.4 0.00 0.00 0.00 40 1010.4
20260904201922 20 308 19.3 35.4 0.00 0.00 0.00 40 1010.3
20260904201417 20 308 22.5 29.0 0.00 0.00 0.00 41 1010.3
20260904200912 19 304 24.1 33.8 0.00 0.00 0.00 41 1010.3
20260904200405 18 318 16.1 33.8 0.00 0.00 0.00 42 1010.1
20260904195900 19 316 24.1 33.8 0.00 0.00 0.00 42 1010.0
20260904195358 18 313 20.9 32.2 0.00 0.00 0.00 42 1009.9
20260904194853 19 317 20.9 33.8 0.00 0.00 0.00 42 1009.8
20260904194352 18 323 25.7 35.4 0.00 0.00 0.00 42 1009.8
20260904193848 18 292 22.5 33.8 0.00 0.00 0.00 42 1009.8
20260904193343 18 306 17.7 32.2 0.00 0.00 0.00 44 1009.6
20260904192838 18 286 20.9 33.8 0.00 0.00 0.00 45 1009.7
20260904192333 19 309 12.9 29.0 0.00 0.00 0.00 44 1009.8
20260904191830 18 320 16.1 27.4 0.00 0.00 0.00 44 1009.6
20260904191326 19 271 16.1 20.9 0.00 0.00 0.00 43 1009.3
20260904190823 19 288 14.5 29.0 0.00 0.00 0.00 44 1009.1
20260904190318 19 284 12.9 24.1 0.00 0.00 0.00 43 1009.5
20260904185814 18 346 19.3 27.4 0.00 0.00 0.00 45 1009.5
20260904185310 18 320 16.1 22.5 0.00 0.00 0.00 45 1009.2
20260904184809 18 272 14.5 20.9 0.00 0.00 0.00 45 1009.2
20260904184304 17 321 12.9 24.1 0.00 0.00 0.00 47 1009.3
20260904183759 17 304 17.7 24.1 0.00 0.00 0.00 46 1009.1
20260904183254 17 304 17.7 22.5 0.00 0.00 0.00 46 1009.1
20260904182749 18 290 11.3 22.5 0.00 0.00 0.00 46 1009.2
20260904182244 18 315 12.9 22.5 0.00 0.00 0.00 45 1009.1
20260904181740 18 308 14.5 20.9 0.00 0.00 0.00 45 1009.2
20260904181240 18 292 17.7 24.1 0.00 0.00 0.00 44 1009.0
20260904180735 18 323 14.5 22.5 0.00 0.00 0.00 45 1008.9
20260904180230 18 315 12.9 22.5 0.00 0.00 0.00 45 1009.0
20260904175729 17 298 14.5 20.9 0.00 0.00 0.00 46 1009.1
20260904175228 17 333 14.5 17.7 0.00 0.00 0.00 47 1009.2
20260904174723 17 316 17.7 20.9 0.00 0.00 0.00 46 1008.9
20260904174219 17 308 11.3 22.5 0.00 0.00 0.00 47 1009.0
20260904173715 17 303 19.3 24.1 0.00 0.00 0.00 48 1009.1
20260904173214 18 325 16.1 24.1 0.00 0.00 0.00 46 1008.9
20260904172712 18 329 11.3 20.9 0.00 0.00 0.00 46 1008.8
20260904172210 18 332 14.5 27.4 0.00 0.00 0.00 47 1008.8
20260904171706 19 283 19.3 22.5 0.00 0.00 0.00 44 1008.7
20260904171201 19 331 11.3 14.5 0.00 0.00 0.00 45 1008.6
20260904170657 20 293 11.3 17.7 0.00 0.00 0.00 44 1008.2
20260904170152 20 359 0.0 0.0 0.00 0.00 0.00 42 1008.2
20260904165651 20 349 4.8 12.9 0.00 0.00 0.00 43 1008.5
20260904165151 20 341 0.0 0.0 0.00 0.00 0.00 41 1008.0
20260904164646 19 336 0.0 8.0 0.00 0.00 0.00 42 1008.4
20260904164141 19 320 0.0 0.0 0.00 0.00 0.00 42 1008.4
20260904163636 19 278 6.4 8.0 0.00 0.00 0.00 43 1008.1
20260904163131 18 278 0.0 0.0 0.00 0.00 0.00 43 1008.5
20260904162625 18 323 0.0 4.8 0.00 0.00 0.00 43 1008.4
20260904162120 18 310 1.6 8.0 0.00 0.00 0.00 43 1008.4
20260904161616 18 234 0.0 0.0 0.00 0.00 0.00 45 1008.2
20260904161111 18 231 0.0 0.0 0.00 0.00 0.00 45 1008.2
20260904160607 18 171 0.0 0.0 0.00 0.00 0.00 44 1008.0
20260904155602 18 83 1.6 3.2 0.00 0.00 0.00 44 1007.6
20260904155055 17 91 4.8 11.3 0.00 0.00 0.00 44 1007.3
20260904154549 18 52 0.0 8.0 0.00 0.00 0.00 44 1007.3
20260904154039 17 95 0.0 0.0 0.00 0.00 0.00 45 1007.3
20260904153538 17 95 0.0 4.8 0.00 0.00 0.00 46 1007.3
20260904153035 17 97 0.0 3.2 0.00 0.00 0.00 45 1007.3
20260904152530 17 100 4.8 4.8 0.00 0.00 0.00 44 1007.3
20260904152026 17 85 1.6 1.6 0.00 0.00 0.00 45 1007.5
20260904151520 17 30 0.0 0.0 0.00 0.00 0.00 46 1007.5
20260904151014 17 113 0.0 0.0 0.00 0.00 0.00 44 1007.4
20260904150514 17 106 0.0 0.0 0.00 0.00 0.00 44 1007.3
20260904150009 17 96 0.0 0.0 0.00 0.00 0.00 45 1007.3
20260904145503 16 327 0.0 0.0 0.00 0.00 0.00 49 1007.3
20260904144958 16 48 0.0 0.0 0.00 0.00 0.00 49 1007.6
20260904144454 15 7 0.0 0.0 0.00 0.00 0.00 51 1007.4
20260904143950 15 215 0.0 1.6 0.00 0.00 0.00 52 1007.7
20260904143446 15 78 0.0 0.0 0.00 0.00 0.00 52 1007.6
20260904142943 15 87 0.0 0.0 0.00 0.00 0.00 52 1007.5
20260904142439 15 72 0.0 0.0 0.00 0.00 0.00 52 1007.5
20260904141938 14 33 0.0 4.8 0.00 0.00 0.00 55 1007.6
20260904141434 13 327 8.0 12.9 0.00 0.00 0.00 57 1007.5
20260904140931 13 288 0.0 0.0 0.00 0.00 0.00 63 1007.6
20260904140430 12 23 0.0 0.0 0.00 0.00 0.00 62 1007.1
20260904135929 11 306 0.0 0.0 0.00 0.00 0.00 64 1007.6
20260904135429 11 318 0.0 0.0 0.00 0.00 0.00 66 1007.5
20260904134925 11 0 0.0 0.0 0.00 0.00 0.00 65 1007.4
20260904134425 11 299 0.0 0.0 0.00 0.00 0.00 66 1007.4
20260904133919 10 297 0.0 0.0 0.00 0.00 0.00 66 1007.5
20260904133415 11 324 0.0 1.6 0.00 0.00 0.00 65 1007.8
20260904132910 11 5 4.8 8.0 0.00 0.00 0.00 61 1007.3
20260904132405 11 8 0.0 0.0 0.00 0.00 0.00 63 1007.3
20260904131905 10 349 0.0 0.0 0.00 0.00 0.00 65 1007.6
20260904131400 11 346 0.0 0.0 0.00 0.00 0.00 63 1007.3
20260904130855 12 348 0.0 0.0 0.00 0.00 0.00 60 1007.5
20260904130355 12 0 0.0 3.2 0.00 0.00 0.00 60 1007.1
20260904125849 12 10 0.0 0.0 0.00 0.00 0.00 60 1007.1
20260904125346 12 14 0.0 8.0 0.00 0.00 0.00 59 1007.3
20260904124845 12 25 4.8 8.0 0.00 0.00 0.00 60 1007.0
20260904124342 11 36 1.6 9.7 0.00 0.00 0.00 60 1007.0
20260904123837 11 5 4.8 8.0 0.00 0.00 0.00 62 1006.9
20260904123332 11 340 0.0 0.0 0.00 0.00 0.00 65 1007.1
20260904122827 10 344 0.0 0.0 0.00 0.00 0.00 66 1007.3
20260904122327 11 24 0.0 0.0 0.00 0.00 0.00 65 1007.3
20260904121822 11 20 0.0 0.0 0.00 0.00 0.00 62 1007.1
20260904121318 11 7 0.0 0.0 0.00 0.00 0.00 63 1007.3
20260904120814 11 345 0.0 0.0 0.00 0.00 0.00 65 1007.6
20260904120309 11 357 0.0 0.0 0.00 0.00 0.00 64 1007.1
20260904115804 11 90 0.0 0.0 0.00 0.00 0.00 61 1007.3
20260904115300 12 83 0.0 0.0 0.00 0.00 0.00 60 1007.1
20260904114754 12 78 0.0 0.0 0.00 0.00 0.00 59 1007.1
20260904114254 12 68 0.0 0.0 0.00 0.00 0.00 59 1007.4
20260904113749 12 48 0.0 0.0 0.00 0.00 0.00 58 1007.1
20260904113248 12 21 0.0 0.0 0.00 0.00 0.00 60 1007.1
20260904112743 12 337 0.0 0.0 0.00 0.00 0.00 61 1007.3
20260904112239 12 20 0.0 0.0 0.00 0.00 0.00 60 1007.4
20260904111735 11 20 0.0 0.0 0.00 0.00 0.00 61 1007.1
20260904111231 11 355 0.0 0.0 0.00 0.00 0.00 65 1007.3
20260904110726 10 320 0.0 0.0 0.00 0.00 0.00 66 1007.1
20260904110225 10 258 0.0 0.0 0.00 0.00 0.00 66 1007.6
20260904105720 10 326 0.0 0.0 0.00 0.00 0.00 66 1007.5
20260904105214 10 321 0.0 0.0 0.00 0.00 0.00 69 1007.5
20260904104710 10 298 0.0 0.0 0.00 0.00 0.00 67 1007.3
20260904104206 10 333 0.0 0.0 0.00 0.00 0.00 68 1007.7
20260904103702 10 330 0.0 0.0 0.00 0.00 0.00 68 1007.6
20260904103157 9 317 0.0 0.0 0.00 0.00 0.00 70 1007.8
20260904102653 9 331 0.0 0.0 0.00 0.00 0.00 70 1007.7
20260904102148 9 316 0.0 0.0 0.00 0.00 0.00 69 1007.8
20260904101645 9 309 0.0 0.0 0.00 0.00 0.00 70 1007.7
20260904101140 9 320 0.0 0.0 0.00 0.00 0.00 69 1008.0
20260904100636 8 322 0.0 0.0 0.00 0.00 0.00 72 1007.9
20260904100131 8 317 0.0 0.0 0.00 0.00 0.00 72 1007.9
20260904095625 8 348 0.0 3.2 0.00 0.00 0.00 72 1008.0
20260904095120 8 318 0.0 0.0 0.00 0.00 0.00 72 1008.1
20260904094615 8 327 0.0 0.0 0.00 0.00 0.00 72 1008.0
20260904094110 8 346 0.0 0.0 0.00 0.00 0.00 73 1008.0
20260904093607 8 334 0.0 0.0 0.00 0.00 0.00 73 1008.0
20260904093107 8 326 0.0 0.0 0.00 0.00 0.00 73 1007.9
20260904092603 8 291 0.0 0.0 0.00 0.00 0.00 74 1008.2
20260904092059 8 307 0.0 0.0 0.00 0.00 0.00 73 1008.1
20260904091555 8 340 0.0 0.0 0.00 0.00 0.00 69 1008.2
20260904091054 8 346 0.0 0.0 0.00 0.00 0.00 69 1008.0
20260904090550 8 346 0.0 0.0 0.00 0.00 0.00 70 1008.5
20260904090045 9 261 0.0 0.0 0.00 0.00 0.00 71 1008.8
20260904085540 9 261 0.0 0.0 0.00 0.00 0.00 69 1008.5
20260904085040 10 262 0.0 0.0 0.00 0.00 0.00 68 1008.6
20260904084536 9 264 0.0 0.0 0.00 0.00 0.00 67 1008.6
20260904084032 9 268 0.0 0.0 0.00 0.00 0.00 69 1008.5
20260904083527 9 271 0.0 0.0 0.00 0.00 0.00 69 1008.6
20260904083023 9 276 0.0 0.0 0.00 0.00 0.00 69 1008.7
20260904082518 9 299 0.0 0.0 0.00 0.00 0.00 68 1008.7
20260904082013 10 333 0.0 0.0 0.00 0.00 0.00 67 1008.4
20260904081508 10 330 0.0 0.0 0.00 0.00 0.00 66 1008.6
20260904081004 10 313 0.0 0.0 0.00 0.00 0.00 65 1008.6
20260904080459 10 317 0.0 0.0 0.00 0.00 0.00 64 1008.8
20260904075955 11 307 0.0 0.0 0.00 0.00 0.00 65 1008.9
20260904075451 11 278 0.0 0.0 0.00 0.00 0.00 64 1008.9
20260904074950 11 274 0.0 0.0 0.00 0.00 0.00 62 1008.9
20260904074445 11 276 0.0 0.0 0.00 0.00 0.00 66 1008.8
20260904073940 12 285 0.0 0.0 0.00 0.00 0.00 63 1008.8
20260904073436 12 285 0.0 0.0 0.00 0.00 0.00 61 1008.8
20260904072931 12 285 0.0 0.0 0.00 0.00 0.00 61 1008.8
20260904072426 11 287 0.0 0.0 0.00 0.00 0.00 63 1008.9
20260904071921 11 305 0.0 0.0 0.00 0.00 0.00 66 1008.9
20260904071417 11 306 0.0 0.0 0.00 0.00 0.00 64 1009.0
20260904070911 11 317 0.0 0.0 0.00 0.00 0.00 67 1008.7
20260904070411 11 323 0.0 0.0 0.00 0.00 0.00 64 1009.1
20260904065910 11 323 0.0 0.0 0.00 0.00 0.00 64 1008.8
20260904065407 12 325 0.0 0.0 0.00 0.00 0.00 63 1008.8
20260904064906 11 325 0.0 0.0 0.00 0.00 0.00 65 1009.1
20260904064403 11 327 0.0 0.0 0.00 0.00 0.00 66 1008.9
20260904063858 11 331 0.0 0.0 0.00 0.00 0.00 66 1008.9
20260904063355 11 313 0.0 0.0 0.00 0.00 0.00 68 1008.9
20260904062849 10 332 0.0 0.0 0.00 0.00 0.00 68 1008.9
20260904062345 10 330 0.0 0.0 0.00 0.00 0.00 68 1009.0
20260904061841 10 328 0.0 0.0 0.00 0.00 0.00 69 1008.8
20260904061337 10 320 0.0 0.0 0.00 0.00 0.00 67 1008.9
20260904060833 10 314 0.0 0.0 0.00 0.00 0.00 68 1009.0
20260904060329 10 333 0.0 0.0 0.00 0.00 0.00 68 1009.1
20260904055824 10 316 0.0 0.0 0.00 0.00 0.00 67 1009.1
20260904055319 10 352 0.0 0.0 0.00 0.00 0.00 67 1009.1
20260904054814 11 345 0.0 0.0 0.00 0.00 0.00 65 1008.9
20260904054310 11 319 0.0 0.0 0.00 0.00 0.00 65 1009.2
20260904053800 11 347 0.0 0.0 0.00 0.00 0.00 63 1009.3
20260904053259 11 324 0.0 0.0 0.00 0.00 0.00 63 1009.3
20260904052756 11 307 0.0 0.0 0.00 0.00 0.00 64 1009.6
20260904052252 11 313 0.0 0.0 0.00 0.00 0.00 65 1009.6
20260904051748 11 318 0.0 0.0 0.00 0.00 0.00 64 1009.7
20260904051243 11 306 0.0 0.0 0.00 0.00 0.00 67 1009.6
20260904050738 11 306 0.0 0.0 0.00 0.00 0.00 63 1009.7
20260904050234 11 306 0.0 0.0 0.00 0.00 0.00 64 1009.6
20260904045729 10 305 0.0 0.0 0.00 0.00 0.00 66 1009.5
20260904045224 10 306 0.0 0.0 0.00 0.00 0.00 69 1009.5
20260904044719 10 305 0.0 0.0 0.00 0.00 0.00 65 1009.1
20260904044215 10 305 0.0 0.0 0.00 0.00 0.00 65 1009.2
20260904043711 10 306 0.0 0.0 0.00 0.00 0.00 66 1009.5
20260904043207 10 308 0.0 0.0 0.00 0.00 0.00 65 1009.1
20260904042703 11 312 0.0 1.6 0.00 0.00 0.00 62 1009.3
20260904042159 11 311 0.0 0.0 0.00 0.00 0.00 62 1009.2
20260904041653 10 358 0.0 0.0 0.00 0.00 0.00 63 1009.1
20260904041150 10 13 0.0 0.0 0.00 0.00 0.00 65 1009.0
20260904040645 10 352 0.0 0.0 0.00 0.00 0.00 65 1008.8
20260904040141 10 346 0.0 0.0 0.00 0.00 0.00 64 1009.0
20260904035637 10 357 0.0 0.0 0.00 0.00 0.00 63 1009.1
20260904035137 10 12 0.0 0.0 0.00 0.00 0.00 65 1009.2
20260904034636 10 348 0.0 0.0 0.00 0.00 0.00 64 1009.2
20260904034132 10 338 0.0 0.0 0.00 0.00 0.00 63 1009.2
20260904033627 10 318 0.0 0.0 0.00 0.00 0.00 65 1009.3
20260904033125 10 315 0.0 0.0 0.00 0.00 0.00 64 1009.1
20260904032620 10 331 0.0 0.0 0.00 0.00 0.00 64 1009.3
20260904032119 11 350 0.0 0.0 0.00 0.00 0.00 61 1009.1
20260904031618 11 343 0.0 0.0 0.00 0.00 0.00 61 1009.5
20260904031114 11 351 0.0 0.0 0.00 0.00 0.00 60 1009.1
20260904030610 11 347 0.0 4.8 0.00 0.00 0.00 61 1009.2
20260904030105 11 352 0.0 0.0 0.00 0.00 0.00 60 1008.9
20260904025601 11 337 0.0 0.0 0.00 0.00 0.00 58 1009.2
20260904025056 11 336 0.0 0.0 0.00 0.00 0.00 60 1008.9
20260904024551 11 341 0.0 0.0 0.00 0.00 0.00 60 1008.9
20260904024047 11 342 0.0 0.0 0.00 0.00 0.00 58 1008.9
20260904023543 12 348 0.0 0.0 0.00 0.00 0.00 56 1009.0
20260904023038 12 353 0.0 0.0 0.00 0.00 0.00 56 1008.9
20260904022533 12 342 0.0 0.0 0.00 0.00 0.00 53 1008.8
20260904022030 13 347 0.0 0.0 0.00 0.00 0.00 51 1008.8
20260904021525 14 9 0.0 0.0 0.00 0.00 0.00 48 1009.0
20260904021021 15 20 0.0 0.0 0.00 0.00 0.00 46 1008.7
20260904020521 16 29 0.0 0.0 0.00 0.00 0.00 44 1008.7
20260904020015 16 15 0.0 0.0 0.00 0.00 0.00 44 1008.6
20260904015510 17 324 0.0 0.0 0.00 0.00 0.00 43 1008.5
20260904015009 17 308 4.8 8.0 0.00 0.00 0.00 42 1008.7
20260904014503 17 296 8.0 11.3 0.00 0.00 0.00 41 1008.6
20260904013959 18 296 4.8 11.3 0.00 0.00 0.00 40 1008.7
20260904013455 18 278 8.0 12.9 0.00 0.00 0.00 40 1008.7
20260904012951 18 291 9.7 14.5 0.00 0.00 0.00 39 1008.6
20260904012451 19 303 8.0 12.9 0.00 0.00 0.00 38 1008.6
20260904011945 20 295 4.8 12.9 0.00 0.00 0.00 38 1008.5
20260904011440 20 337 6.4 12.9 0.00 0.00 0.00 37 1008.4
20260904010935 20 274 6.4 16.1 0.00 0.00 0.00 36 1008.4
20260904010431 20 291 9.7 14.5 0.00 0.00 0.00 36 1008.4
20260904005926 20 268 8.0 22.5 0.00 0.00 0.00 35 1008.2
20260904005421 21 280 16.1 17.7 0.00 0.00 0.00 35 1008.2